User: anonymous   Login
Location: Byszew
(52.1813°N, 19.2693°E)
Time: 23:50:58
(UTC+00:00)
Language:

Cosmos 1862 Rocket - Orbit

View from above orbital plane
View from above orbital plane
View from above satellite
View from above satellite

Ground track
Ground track

The orbit data is extracted from the following two-line orbital elements,

1 18153U 87055B   21129.48678963  .00000070  00000-0  55179-5 0  9998
2 18153  82.5027 209.0251 0023096  78.8021 281.5788 14.83326768808114
Epoch (UTC): 09 May 2021 11:40:58
Eccentricity: 0.0023096
inclination: 82.5027°
perigee height: 602 km
apogee height: 635 km
right ascension of ascending node: 209.0251°
argument of perigee: 78.8021°
revolutions per day: 14.83326768
mean anomaly at epoch: 281.5788°
orbit number at epoch: 80811

The dashed part of the orbit path shows where the satellite is in the earth's shadow,  

DLR